This is the latest recevied weather packets stored in our database for station/object SQ7IQO. If no packets are shown the sender has not sent any weather packets the latest 10 day(s).
| Time | Temp. | Humidity | Pressure | Rain* | Wind** | Luminosity | Snow |
|---|---|---|---|---|---|---|---|
| 1787821359 | 22.22° C | 51% | 1024.7 hPa | 0 mm | 0 m/s | - | - |
| 1787821300 | 21.67° C | 51% | 1024.7 hPa | 0 mm | 0 m/s | - | - |
| 1787821240 | 22.22° C | 50% | 1024.7 hPa | 0 mm | 0.89 m/s, ° | - | - |
| 1787821180 | 22.78° C | 49% | 1024.7 hPa | 0 mm | 0.89 m/s, ° | - | - |
| 1787821119 | 22.78° C | 49% | 1024.7 hPa | 0 mm | 0.89 m/s, ° | - | - |
| 1787821060 | 22.78° C | 52% | 1024.7 hPa | 0 mm | 0.45 m/s, ° | - | - |
| 1787820999 | 22.78° C | 51% | 1024.7 hPa | 0 mm | 0 m/s | - | - |
| 1787820939 | 22.78° C | 51% | 1024.7 hPa | 0 mm | 0 m/s | - | - |
| 1787820879 | 22.78° C | 52% | 1024.7 hPa | 0 mm | 0.45 m/s, ° | - | - |
| 1787820819 | 22.78° C | 53% | 1024.7 hPa | 0 mm | 0 m/s | - | - |
| 1787820759 | 22.78° C | 50% | 1024.7 hPa | 0 mm | 0.45 m/s, ° | - | - |
| 1787820700 | 22.78° C | 51% | 1024.7 hPa | 0 mm | 0.45 m/s, ° | - | - |
| 1787820640 | 22.22° C | 52% | 1024.7 hPa | 0 mm | 0 m/s | - | - |
| 1787820580 | 21.67° C | 52% | 1024.6 hPa | 0 mm | 0.45 m/s, ° | - | - |
| 1787820520 | 21.67° C | 54% | 1024.6 hPa | 0 mm | 0 m/s | - | - |
| 1787820460 | 21.67° C | 52% | 1024.6 hPa | 0 mm | 0.45 m/s, ° | - | - |
| 1787820399 | 22.22° C | 52% | 1024.6 hPa | 0 mm | 0.89 m/s, ° | - | - |
| 1787820339 | 22.78° C | 53% | 1024.7 hPa | 0 mm | 0.45 m/s, ° | - | - |
| 1787820279 | 22.78° C | 52% | 1024.6 hPa | 0 mm | 0 m/s | - | - |
| 1787820219 | 22.78° C | 51% | 1024.6 hPa | 0 mm | 0 m/s | - | - |
| 1787820160 | 22.78° C | 54% | 1024.7 hPa | 0 mm | 0.45 m/s, ° | - | - |
| 1787820099 | 22.78° C | 51% | 1024.7 hPa | 0 mm | 0 m/s | - | - |
| 1787820039 | 22.22° C | 51% | 1024.6 hPa | 0 mm | 0 m/s | - | - |
| 1787819979 | 22.22° C | 51% | 1024.6 hPa | 0 mm | 0 m/s | - | - |
| 1787819920 | 22.22° C | 52% | 1024.7 hPa | 0 mm | 0.89 m/s, ° | - | - |
* Rain latest hour (hover to see other rain measurements)
** Current wind speed in m/s (hover to see current wind gust speed)